K3RUP-1 Weather Reports


time (UTC)temp
C
wind
direction
speed
KPH
gust
KPH
rain 1hr
cm
rain 24hr
cm
rain mn
cm
humidity
%
barometer
mb
20260504110415 10 142 0.0 0.0 0.00 0.00 0.00 76 1014.6
20260504100332 10 143 0.0 0.0 0.00 0.00 0.00 76 1014.6
20260504081726 9 146 0.0 0.0 0.00 0.00 0.00 75 1015.0
20260504081222 10 142 0.0 0.0 0.00 0.00 0.00 75 1014.9
20260504080719 9 142 0.0 0.0 0.00 0.00 0.00 73 1015.1
20260504080215 10 142 0.0 0.0 0.00 0.00 0.00 75 1014.9
20260504070143 9 141 0.0 0.0 0.00 0.00 0.00 78 1015.1
20260504060103 8 149 0.0 0.0 0.00 0.00 0.00 77 1015.3
20260504050532 7 153 0.0 0.0 0.00 0.00 0.00 78 1015.2
20260504045525 7 151 0.0 0.0 0.00 0.00 0.00 77 1015.2
20260504045021 7 151 0.0 0.0 0.00 0.00 0.00 76 1015.1
20260504044518 7 151 0.0 0.0 0.00 0.00 0.00 76 1015.3
20260504044015 7 151 0.0 0.0 0.00 0.00 0.00 75 1015.2
20260504043512 7 149 0.0 0.0 0.00 0.00 0.00 76 1015.1
20260504043010 7 150 0.0 0.0 0.00 0.00 0.00 76 1015.1
20260504042506 7 151 0.0 0.0 0.00 0.00 0.00 76 1015.3
20260504042003 7 147 0.0 0.0 0.00 0.00 0.00 77 1015.1
20260504041459 7 143 0.0 0.0 0.00 0.00 0.00 77 1015.2
20260504040955 7 143 0.0 0.0 0.00 0.00 0.00 77 1015.2
20260504040453 7 143 0.0 0.0 0.00 0.00 0.00 78 1015.3
20260504035949 7 149 0.0 0.0 0.00 0.00 0.00 78 1015.0
20260504035447 6 153 0.0 0.0 0.00 0.00 0.00 78 1014.9
20260504034943 6 152 0.0 0.0 0.00 0.00 0.00 78 1015.0
20260504034440 6 152 0.0 0.0 0.00 0.00 0.00 78 1014.9
20260504033937 6 148 0.0 0.0 0.00 0.00 0.00 78 1015.1
20260504033435 6 153 0.0 0.0 0.00 0.00 0.00 79 1014.9
20260504032932 6 153 0.0 0.0 0.00 0.00 0.00 79 1014.7
20260504032429 6 151 0.0 0.0 0.00 0.00 0.00 78 1014.8
20260504031926 7 150 0.0 0.0 0.00 0.00 0.00 79 1014.6
20260504031422 7 150 0.0 0.0 0.00 0.00 0.00 78 1014.8
20260504030919 7 150 0.0 0.0 0.00 0.00 0.00 78 1014.6
20260504030416 7 150 0.0 0.0 0.00 0.00 0.00 78 1014.6
20260504025912 7 150 0.0 0.0 0.00 0.00 0.00 77 1014.7
20260504025409 7 150 0.0 0.0 0.00 0.00 0.00 76 1014.7
20260504024906 7 149 0.0 0.0 0.00 0.00 0.00 77 1014.6
20260504024403 7 149 0.0 0.0 0.00 0.00 0.00 76 1014.6
20260504023900 7 150 0.0 0.0 0.00 0.00 0.00 76 1014.6
20260504023356 7 149 0.0 0.0 0.00 0.00 0.00 75 1014.7
20260504022852 7 150 0.0 0.0 0.00 0.00 0.00 75 1014.5
20260504022349 7 150 0.0 0.0 0.00 0.00 0.00 74 1014.6
20260504021845 7 150 0.0 0.0 0.00 0.00 0.00 74 1014.6
20260504021343 7 149 0.0 0.0 0.00 0.00 0.00 73 1014.6
20260504020840 8 149 0.0 0.0 0.00 0.00 0.00 73 1014.7
20260504020337 8 149 0.0 0.0 0.00 0.00 0.00 73 1014.5
20260504015833 8 150 0.0 0.0 0.00 0.00 0.00 73 1014.4
20260504015329 8 149 0.0 0.0 0.00 0.00 0.00 71 1014.4
20260504014825 8 149 0.0 0.0 0.00 0.00 0.00 70 1014.4
20260504014321 8 149 0.0 0.0 0.00 0.00 0.00 70 1014.6
20260504013819 8 148 0.0 0.0 0.00 0.00 0.00 70 1014.3
20260504013317 8 148 0.0 0.0 0.00 0.00 0.00 70 1014.4
20260504012813 8 148 0.0 0.0 0.00 0.00 0.00 69 1014.6
20260504012311 8 148 0.0 0.0 0.00 0.00 0.00 67 1014.3
20260504011808 9 148 0.0 0.0 0.00 0.00 0.00 67 1014.4
20260504011305 9 148 0.0 0.0 0.00 0.00 0.00 66 1014.2
20260504010800 9 148 0.0 0.0 0.00 0.00 0.00 65 1014.1
20260504010256 9 148 0.0 0.0 0.00 0.00 0.00 63 1014.2
20260504005753 10 148 0.0 0.0 0.00 0.00 0.00 63 1014.3
20260504005250 10 147 0.0 0.0 0.00 0.00 0.00 61 1014.3
20260504004748 10 147 0.0 0.0 0.00 0.00 0.00 60 1014.3
20260504004245 10 147 0.0 0.0 0.00 0.00 0.00 61 1014.1
20260504003741 10 146 0.0 0.0 0.00 0.00 0.00 60 1014.1
20260504003238 11 145 0.0 0.0 0.00 0.00 0.00 58 1014.0
20260504002735 11 145 0.0 0.0 0.00 0.00 0.00 58 1014.0
20260504002232 11 146 0.0 0.0 0.00 0.00 0.00 55 1013.8
20260504001730 11 144 0.0 0.0 0.00 0.00 0.00 54 1013.8
20260504001226 12 144 0.0 0.0 0.00 0.00 0.00 55 1013.8
20260504000723 12 144 0.0 0.0 0.00 0.00 0.00 54 1013.7
20260504000220 12 144 0.0 0.0 0.00 0.00 0.00 53 1013.7
20260503235719 13 144 0.0 0.0 0.00 0.00 0.00 51 1013.6
20260503235215 13 144 0.0 0.0 0.00 0.00 0.00 50 1013.6
20260503234713 13 144 0.0 0.0 0.00 0.00 0.00 48 1013.7
20260503234211 13 144 0.0 0.0 0.00 0.00 0.00 48 1013.4
20260503233708 14 144 0.0 0.0 0.00 0.00 0.00 51 1013.5
20260503233203 15 144 0.0 0.0 0.00 0.00 0.00 47 1013.3
20260503232700 15 144 0.0 0.0 0.00 0.00 0.00 49 1013.4
20260503232157 15 138 0.0 0.0 0.00 0.00 0.00 45 1013.3
20260503231656 15 117 0.0 0.0 0.00 0.00 0.00 39 1013.3
20260503231151 15 129 0.0 0.0 0.00 0.00 0.00 40 1013.2
20260503230648 15 150 0.0 0.0 0.00 0.00 0.00 41 1013.4
20260503230145 16 136 0.0 0.0 0.00 0.00 0.00 42 1013.3
20260503225643 16 179 0.0 0.0 0.00 0.00 0.00 38 1013.2
20260503225143 16 154 0.0 0.0 0.00 0.00 0.00 34 1013.2
20260503224640 16 85 0.0 0.0 0.00 0.00 0.00 35 1013.3
20260503224138 16 107 0.0 0.0 0.00 0.00 0.00 34 1013.5
20260503223636 16 189 0.0 0.0 0.00 0.00 0.00 34 1013.6
20260503223132 16 135 0.0 0.0 0.00 0.00 0.00 35 1013.2
20260503222629 16 151 0.0 0.0 0.00 0.00 0.00 32 1013.2
20260503222127 16 138 1.6 3.2 0.00 0.00 0.00 35 1013.2
20260503221625 16 188 0.0 0.0 0.00 0.00 0.00 34 1013.2
20260503221122 16 129 0.0 1.6 0.00 0.00 0.00 31 1013.5
20260503220619 16 142 0.0 0.0 0.00 0.00 0.00 31 1013.4
20260503220115 17 148 0.0 0.0 0.00 0.00 0.00 32 1013.4
20260503215613 17 225 0.0 0.0 0.00 0.00 0.00 34 1013.6
20260503215109 17 166 0.0 0.0 0.00 0.00 0.00 31 1013.2
20260503214608 17 144 0.0 0.0 0.00 0.00 0.00 33 1013.4
20260503214103 17 206 0.0 0.0 0.00 0.00 0.00 32 1013.2
20260503213603 16 219 0.0 1.6 0.00 0.00 0.00 31 1013.3
20260503213058 17 199 0.0 0.0 0.00 0.00 0.00 33 1013.3
20260503212556 17 252 1.6 1.6 0.00 0.00 0.00 33 1013.4
20260503212054 17 265 0.0 1.6 0.00 0.00 0.00 31 1013.4
20260503211551 17 274 0.0 0.0 0.00 0.00 0.00 31 1013.0
20260503211046 17 145 0.0 0.0 0.00 0.00 0.00 36 1013.4
20260503210543 17 239 1.6 3.2 0.00 0.00 0.00 33 1013.4
20260503210038 17 306 0.0 0.0 0.00 0.00 0.00 34 1013.5
20260503205535 17 275 0.0 0.0 0.00 0.00 0.00 33 1013.3
20260503205032 18 306 1.6 3.2 0.00 0.00 0.00 33 1013.3
20260503204529 17 149 0.0 0.0 0.00 0.00 0.00 33 1013.3
20260503204026 17 328 0.0 0.0 0.00 0.00 0.00 32 1013.6
20260503203523 17 156 0.0 1.6 0.00 0.00 0.00 32 1013.4
20260503203020 17 147 0.0 0.0 0.00 0.00 0.00 32 1013.5
20260503202518 17 323 0.0 0.0 0.00 0.00 0.00 32 1013.6
20260503202016 17 146 0.0 0.0 0.00 0.00 0.00 34 1013.6
20260503201514 17 341 0.0 1.6 0.00 0.00 0.00 35 1013.7
20260503201011 16 277 0.0 1.6 0.00 0.00 0.00 34 1014.0
20260503200507 16 249 0.0 0.0 0.00 0.00 0.00 33 1013.8
20260503200004 17 205 0.0 0.0 0.00 0.00 0.00 35 1014.0
20260503195501 17 201 0.0 0.0 0.00 0.00 0.00 34 1014.0
20260503194957 16 145 0.0 0.0 0.00 0.00 0.00 35 1014.1
20260503194455 16 345 0.0 0.0 0.00 0.00 0.00 33 1014.1
20260503193949 17 245 4.8 8.0 0.00 0.00 0.00 32 1014.2
20260503193446 17 273 0.0 0.0 0.00 0.00 0.00 35 1014.2
20260503192941 16 227 1.6 1.6 0.00 0.00 0.00 35 1014.0
20260503192438 17 223 0.0 0.0 0.00 0.00 0.00 35 1014.5
20260503191933 16 218 0.0 0.0 0.00 0.00 0.00 35 1014.4
20260503191431 16 202 0.0 0.0 0.00 0.00 0.00 34 1014.4
20260503190927 16 301 0.0 1.6 0.00 0.00 0.00 36 1014.6
20260503190425 16 133 0.0 0.0 0.00 0.00 0.00 34 1014.7
20260503185922 16 120 1.6 3.2 0.00 0.00 0.00 37 1014.7
20260503185418 16 236 4.8 8.0 0.00 0.00 0.00 34 1014.6
20260503184917 16 191 0.0 0.0 0.00 0.00 0.00 36 1014.5
20260503184414 17 166 0.0 0.0 0.00 0.00 0.00 34 1014.8
20260503183910 16 317 0.0 0.0 0.00 0.00 0.00 37 1014.8
20260503183407 17 131 0.0 0.0 0.00 0.00 0.00 35 1015.0
20260503182904 15 130 0.0 3.2 0.00 0.00 0.00 37 1015.1
20260503182403 15 170 0.0 0.0 0.00 0.00 0.00 38 1014.9
20260503181900 15 146 0.0 1.6 0.00 0.00 0.00 34 1014.8
20260503181357 15 113 0.0 0.0 0.00 0.00 0.00 36 1015.1
20260503180853 15 295 1.6 1.6 0.00 0.00 0.00 37 1015.0
20260503180351 16 156 0.0 0.0 0.00 0.00 0.00 36 1014.9
20260503175847 15 177 0.0 0.0 0.00 0.00 0.00 39 1015.0
20260503175346 15 251 1.6 3.2 0.00 0.00 0.00 36 1015.2
20260503174841 15 131 1.6 3.2 0.00 0.00 0.00 37 1015.2
20260503174339 15 284 0.0 1.6 0.00 0.00 0.00 38 1015.1
20260503173834 15 212 0.0 0.0 0.00 0.00 0.00 36 1015.3
20260503173331 15 84 0.0 0.0 0.00 0.00 0.00 35 1015.2
20260503172828 15 217 0.0 0.0 0.00 0.00 0.00 35 1015.4
20260503172326 15 152 0.0 0.0 0.00 0.00 0.00 35 1015.2
20260503171821 15 160 0.0 1.6 0.00 0.00 0.00 36 1015.5
20260503171318 14 102 0.0 0.0 0.00 0.00 0.00 40 1015.4
20260503170815 14 278 0.0 3.2 0.00 0.00 0.00 38 1015.3
20260503170312 15 267 3.2 4.8 0.00 0.00 0.00 37 1015.4
20260503150704 12 153 0.0 0.0 0.00 0.00 0.00 41 1016.1
20260503150200 11 55 0.0 0.0 0.00 0.00 0.00 44 1015.9
20260503140125 10 184 1.6 4.8 0.00 0.00 0.00 48 1016.4
20260503131054 8 136 0.0 0.0 0.00 0.00 0.00 56 1016.2
20260503130551 8 262 1.6 1.6 0.00 0.00 0.00 54 1016.2